Middletown, OH

3:16 PM EST on January 24, 2017 (GMT -0500)
Hook Field Municipal

Weather History for KMWO - August, 2013

Change the Weather History Date:

Thursday, August 29, 2013

  Actual Average (KFFO) Record (KFFO)
Temperature  
Mean Temperature 76 °F -  
Max Temperature 84 °F 80 °F 93 °F (2007)
Min Temperature 67 °F 58 °F 55 °F (1997)
Cooling Degree Days 10    
Growing Degree Days 26 (Base 50)    
Moisture  
Dew Point 66 °F    
Average Humidity 74    
Maximum Humidity 89    
Minimum Humidity 48    
Precipitation  
Precipitation 0.00 in - - ()
Sea Level Pressure  
Sea Level Pressure 30.04 in    
Wind  
Wind Speed 2 mph (NE)    
Max Wind Speed 8 mph    
Max Gust Speed -    
Visibility 7 miles    
Events Fog    
Averages and records for this station are not official NWS values.
T = Trace of Precipitation, MM = Missing Value Source: NWS Daily Summary

Daily Weather History Graph

Daily Weather History Graph

Search for Another Location

Airport or City:

Trip Planner

Search our weather history database for the weather conditions in past years. The results will help you decide how hot, cold, wet, or windy it might be!

Date:

Astronomy

Aug. 29, 2013 Rise Set
Actual Time 7:03 AM EDT 8:12 PM EDT
Civil Twilight 6:35 AM EDT 8:40 PM EDT
Nautical Twilight 6:02 AM EDT 9:13 PM EDT
Astronomical Twilight 5:27 AM EDT 9:47 PM EDT
Moon 12:54 AM EDT (8/29) 3:40 PM EDT (8/29)
Length of Visible Light 14h 04m
Length of Day
13h 09m
Last Quarter, 38% of the Moon is Illuminated
Aug 29
Last Quarter
Sep 5
New
Sep 12
First Quarter
Sep 19
Full
Sep 26
Last Quarter

Hourly Weather History & Observations

Time (EDT) Temp. Heat Index Dew Point Humidity Pressure Visibility Wind Dir Wind Speed Gust Speed Precip Events Conditions
12:15 AM 75.2 °F - 69.8 °F 83% 30.00 in 7.0 mi Calm Calm - N/A   Clear
12:35 AM - - - N/A% 30.00 in 7.0 mi Calm Calm - N/A   Clear
12:55 AM 72.9 °F - 67.6 °F 84% 30.00 in 7.0 mi NNE 4.6 mph - N/A   Scattered Clouds
1:15 AM 73.2 °F - 68.0 °F 84% 30.00 in 7.0 mi NNE 3.5 mph - N/A   Scattered Clouds
1:35 AM 72.7 °F - 67.8 °F 85% 30.00 in 5.0 mi Calm Calm - N/A   Haze
1:55 AM 72.7 °F - 68.0 °F 85% 30.00 in 5.0 mi Calm Calm - N/A   Haze
2:15 AM 72.7 °F - 68.2 °F 86% 30.00 in 4.0 mi Calm Calm - N/A   Haze
2:35 AM 72.7 °F - 68.5 °F 87% 30.00 in 4.0 mi Calm Calm - N/A   Scattered Clouds
2:55 AM 72.7 °F - 68.5 °F 87% 30.00 in 4.0 mi NNE 3.5 mph - N/A   Scattered Clouds
3:15 AM 72.7 °F - 68.9 °F 88% 30.00 in 4.0 mi NNE 3.5 mph - N/A   Scattered Clouds
3:35 AM 72.7 °F - 68.9 °F 88% 30.00 in 3.0 mi Calm Calm - N/A   Clear
3:55 AM 72.7 °F - 68.9 °F 88% 30.00 in 3.0 mi North 3.5 mph - N/A   Clear
4:15 AM 72.7 °F - 68.9 °F 88% 30.01 in 3.0 mi Calm Calm - N/A   Clear
4:35 AM 70.2 °F - 66.2 °F 87% 30.01 in 3.0 mi North 3.5 mph - N/A   Clear
4:55 AM 70.2 °F - 66.4 °F 88% 30.01 in 3.0 mi North 3.5 mph - N/A   Clear
5:15 AM 70.2 °F - 66.4 °F 88% 30.01 in 3.0 mi Calm Calm - N/A   Clear
5:35 AM 68.5 °F - 64.9 °F 88% 30.01 in 1.8 mi Calm Calm - N/A   Mist
5:55 AM 68.5 °F - 64.9 °F 88% 30.02 in 2.5 mi Calm Calm - N/A   Clear
6:15 AM 67.6 °F - 63.9 °F 88% 30.02 in 1.8 mi Calm Calm - N/A   Mist
6:35 AM 68.7 °F - 65.1 °F 88% 30.02 in 0.5 mi Calm Calm - N/A Fog Fog
6:55 AM 67.6 °F - 64.0 °F 88% 30.03 in 2.0 mi NNE 4.6 mph - N/A   Clear
7:15 AM 67.6 °F - 64.4 °F 89% 30.04 in 1.8 mi Calm Calm - N/A   Overcast
7:35 AM 69.1 °F - 65.7 °F 89% 30.04 in 1.8 mi Calm Calm - N/A   Overcast
7:55 AM 72.5 °F - 69.1 °F 89% 30.05 in 2.5 mi Calm Calm - N/A   Mostly Cloudy
8:15 AM 72.7 °F - 68.9 °F 88% 30.05 in 2.5 mi Calm Calm - N/A   Scattered Clouds
8:35 AM 72.7 °F - 68.9 °F 88% 30.06 in 2.5 mi North 4.6 mph - N/A   Scattered Clouds
8:55 AM 72.7 °F - 68.5 °F 87% 30.06 in 3.0 mi Calm Calm - N/A   Mostly Cloudy
9:15 AM 72.7 °F - 68.0 °F 85% 30.05 in 3.0 mi NE 3.5 mph - N/A   Haze
9:35 AM 72.7 °F - 67.5 °F 84% 30.06 in 4.0 mi NNE 4.6 mph - N/A   Haze
9:55 AM 72.7 °F - 66.4 °F 81% 30.06 in 4.0 mi NE 6.9 mph - N/A   Haze
10:15 AM 75.2 °F - 68.0 °F 78% 30.07 in 5.0 mi North 5.8 mph - N/A   Haze
10:35 AM 75.2 °F - 66.4 °F 74% 30.07 in 7.0 mi North 6.9 mph - N/A   Overcast
10:55 AM 75.2 °F - 66.2 °F 73% 30.08 in 7.0 mi NNE 5.8 mph - N/A   Overcast
11:15 AM 75.2 °F - 65.8 °F 73% 30.08 in 7.0 mi ENE 5.8 mph - N/A   Overcast
11:35 AM 76.1 °F - 66.4 °F 72% 30.08 in 7.0 mi North 6.9 mph - N/A   Overcast
11:55 AM 77.9 °F - 65.8 °F 66% 30.08 in 10.0 mi NE 5.8 mph - N/A   Mostly Cloudy
12:15 PM 77.9 °F - 65.5 °F 65% 30.08 in 10.0 mi NE 6.9 mph - N/A   Scattered Clouds
12:35 PM 79.0 °F - 64.2 °F 60% 30.08 in 10.0 mi ENE 4.6 mph - N/A   Scattered Clouds
1:15 PM 79.9 °F - 63.5 °F 57% 30.06 in 10.0 mi NE 6.9 mph - N/A   Mostly Cloudy
1:55 PM 79.0 °F - 64.9 °F 62% 30.07 in 10.0 mi NE 8.1 mph - N/A   Overcast
2:15 PM 80.2 °F 81.9 °F 64.4 °F 58% 30.07 in 10.0 mi ENE 5.8 mph - N/A   Overcast
2:35 PM 81.9 °F 83.4 °F 64.0 °F 55% 30.06 in 10.0 mi ENE 3.5 mph - N/A   Mostly Cloudy
2:55 PM 80.2 °F 81.9 °F 64.0 °F 58% 30.06 in 10.0 mi East 6.9 mph - N/A   Mostly Cloudy
3:15 PM 83.1 °F 84.4 °F 64.0 °F 52% 30.05 in 10.0 mi ENE 8.1 mph - N/A   Scattered Clouds
3:35 PM 81.1 °F 82.4 °F 63.1 °F 54% 30.05 in 10.0 mi North 6.9 mph - N/A   Mostly Cloudy
3:55 PM 82.2 °F 83.0 °F 62.1 °F 50% 30.04 in 10.0 mi NNE 4.6 mph - N/A   Mostly Cloudy
4:15 PM 82.4 °F 83.2 °F 61.9 °F 50% 30.04 in 10.0 mi NE 6.9 mph - N/A   Overcast
4:35 PM 84.7 °F 86.3 °F 64.8 °F 51% 30.03 in 10.0 mi ENE 8.1 mph - N/A   Scattered Clouds
4:55 PM 81.9 °F 83.1 °F 63.1 °F 53% 30.03 in 10.0 mi NE 8.1 mph - N/A   Clear
5:15 PM 82.2 °F 83.3 °F 63.0 °F 52% 30.04 in 10.0 mi NNE 4.6 mph - N/A   Clear
5:35 PM 82.9 °F 84.0 °F 63.0 °F 51% 30.03 in 10.0 mi North 4.6 mph - N/A   Scattered Clouds
5:55 PM 82.2 °F 83.0 °F 61.9 °F 50% 30.03 in 10.0 mi ENE 4.6 mph - N/A   Scattered Clouds
6:15 PM 81.3 °F 82.2 °F 61.7 °F 51% 30.03 in 10.0 mi Calm Calm - N/A   Clear
6:35 PM 82.6 °F 83.1 °F 61.2 °F 48% 30.02 in 10.0 mi ENE 6.9 mph - N/A   Scattered Clouds
6:55 PM 81.5 °F 82.1 °F 60.8 °F 49% 30.02 in 10.0 mi Calm Calm - N/A   Clear
7:15 PM 81.0 °F 81.8 °F 61.5 °F 51% 30.02 in 10.0 mi NNE 3.5 mph - N/A   Scattered Clouds
7:35 PM 80.2 °F 81.8 °F 63.9 °F 57% 30.02 in 10.0 mi Calm Calm - N/A   Scattered Clouds
7:55 PM 79.0 °F - 64.6 °F 61% 30.02 in 10.0 mi Calm Calm - N/A   Clear
8:15 PM 78.1 °F - 64.2 °F 62% 30.03 in 10.0 mi Calm Calm - N/A   Clear
8:35 PM 75.2 °F - 67.5 °F 77% 30.03 in 10.0 mi Calm Calm - N/A   Clear
8:55 PM 72.7 °F - 66.7 °F 82% 30.03 in 10.0 mi Calm Calm - N/A   Clear
9:15 PM 72.7 °F - 67.3 °F 83% 30.03 in 7.0 mi Calm Calm - N/A   Clear
9:35 PM 72.7 °F - 67.8 °F 85% 30.04 in 7.0 mi Calm Calm - N/A   Clear
9:55 PM 72.7 °F - 68.0 °F 85% 30.05 in 7.0 mi Calm Calm - N/A   Clear
10:15 PM 71.4 °F - 66.7 °F 85% 30.05 in 7.0 mi Calm Calm - N/A   Clear
10:35 PM 72.7 °F - 68.0 °F 85% 30.05 in 7.0 mi Calm Calm - N/A   Clear
10:55 PM 71.8 °F - 66.9 °F 85% 30.04 in 7.0 mi Calm Calm - N/A   Clear
11:15 PM 70.2 °F - 65.5 °F 85% 30.04 in 7.0 mi Calm Calm - N/A   Clear
11:35 PM 68.9 °F - 64.4 °F 86% 30.03 in 7.0 mi Calm Calm - N/A   Clear
11:55 PM 68.9 °F - 64.6 °F 86% 30.03 in 7.0 mi Calm Calm - N/A   Clear